[[{"header":{"parameterUnit":"m.s-1","parameterCategory":1,"la1":30.2991,"la2":30.254,"lo1":-89.0895,"lo2":-89.0444,"dy":0.0017,"dx":0.0017,"nx":28,"ny":28,"refTime":"2024-12-03T03:00:00:Z","depth":0,"parameterNumber":2,"parameterNumberName":"U-component_of_WINDS"},"data":[0,0,0,0,0,0,0,0,0,0,0,0,0,0,0,0,0,0,0,0,0,0,0,0,0,0,0,0,0,0,0,0,0,0,0,0,0,0,0,0,0,0,0,0,0,0,0,0,0,0,0,0,0,0,0,0,0,0,-4.0586,-4.0586,0,-4.0632,-4.0632,-4.0633,-4.0533,-4.053,-4.0527,-4.0524,-4.0569,-4.0573,-4.0577,0,0,0,0,0,0,0,0,0,0,0,0,0,-4.041,-4.0413,-4.0586,-4.0586,-4.0587,-4.0632,-4.0632,-4.0633,-4.0534,-4.053,-4.0526,-4.0523,-4.0567,-4.0572,-4.0577,0,0,0,0,0,0,0,0,0,0,0,0,0,-4.0474,-4.0415,-4.0586,-4.0543,-4.054,-4.0631,-4.0632,-4.0633,-4.0535,-4.053,-4.0525,-4.0521,-4.0566,-4.0572,-4.0578,-4.0712,0,0,-4.0597,-4.06,0,0,0,0,0,0,0,0,-4.047,-4.048,-4.0549,-4.0546,-4.0543,-4.0572,-4.0586,-4.0659,-4.0536,-4.0537,-4.0524,-4.0518,-4.0574,-4.0579,-4.0598,-4.0715,-4.0716,-4.0598,-4.0601,-4.0604,-4.0606,0,0,0,0,0,0,0,-4.0466,-4.0478,-4.0604,-4.055,-4.0546,-4.0521,-4.0524,-4.06,-4.0581,-4.0536,-4.0529,-4.0536,-4.0571,-4.0592,-4.0598,-4.0717,-4.0597,-4.0603,-4.0607,-4.0609,-4.0943,-4.0948,0,0,0,0,0,0,-4.0467,-4.0475,-4.0602,-4.0605,-4.0494,-4.0528,-4.0532,-4.0567,-4.058,-4.0578,-4.054,-4.0531,-4.0584,-4.0591,-4.0599,-4.0755,-4.0604,-4.061,-4.0613,-4.0938,-4.0944,-4.095,0,0,0,0,0,0,-4.0464,-4.048,-4.06,-4.0538,-4.0552,-4.0536,-4.0576,-4.0571,-4.0592,-4.0583,-4.0579,-4.0565,-4.058,-4.0591,-4.0684,-4.0755,-4.0613,-4.0618,-4.0932,-4.094,-4.0947,-4.1069,0,0,0,0,0,0,-4.0459,-4.0479,-4.0531,-4.054,-4.0555,-4.0686,-4.0581,-4.0575,-4.0603,-4.0592,-4.0606,-4.0603,-4.0577,-4.0676,-4.0691,-4.0761,-4.0623,-4.0926,-4.0936,-4.0945,-4.1059,-4.108,-4.1098,0,0,0,0,0,-4.0453,-4.0563,-4.0534,-4.055,-4.062,-4.069,-4.0699,-4.0667,-4.0609,-4.066,-4.0654,-4.0603,-4.0746,-4.0686,-4.0702,-4.0776,-4.0921,-4.0933,-4.0944,-4.105,-4.1076,-4.1098,0,0,0,0,0,0,-4.0562,-4.0564,-4.0531,-4.0648,-4.067,-4.0674,-4.0737,-4.0696,-4.0735,-4.0723,-4.0681,-4.0685,-4.0786,-4.0791,-4.0724,-4.0905,-4.0823,-4.0839,-4.0898,-4.0923,-4.0943,-4.0938,-4.0628,0,0,0,0,0,-4.06,-4.0658,-4.0656,-4.0759,-4.0772,-4.0753,-4.0783,-4.0757,-4.0777,-4.0786,-4.0787,-4.0808,-4.0857,-4.0891,-4.0936,-4.106,-4.106,-4.1118,-4.1138,-4.1154,-4.1167,-4.123,-4.1255,-4.0988,-4.0988,-4.0987,0,0,-4.0678,-4.0686,-4.0726,-4.0781,-4.0795,-4.0855,-4.0761,-4.0829,-4.0872,-4.0796,-4.0884,-4.0886,-4.0907,-4.1016,-4.1064,-4.1022,-4.1241,-4.1169,-4.1182,-4.1186,-4.1244,-4.127,-4.1292,-4.0996,-4.0994,-4.0993,0,0,-4.085,-4.0864,-4.095,-4.0966,-4.0988,-4.0975,-4.0996,-4.1006,-4.1004,-4.1092,-4.1035,-4.1086,-4.1173,-4.1189,-4.1209,-4.1387,-4.134,-4.1403,-4.1506,-4.1567,-4.1588,-4.1607,-4.1667,-4.169,-4.1417,-4.1417,-4.1417,0,-4.0944,-4.1033,-4.0999,-4.107,-4.1095,-4.103,-4.1115,-4.1132,-4.1168,-4.1186,-4.114,-4.1246,-4.1256,-4.1366,-4.1409,-4.1429,-4.1449,-4.14,-4.1588,-4.1607,-4.1623,-4.168,-4.1704,-4.1424,-4.1423,-4.1423,-4.1422,0,-4.1146,-4.1208,-4.1275,-4.1311,-4.1344,-4.1422,-4.1399,-4.1436,-4.1407,-4.1398,-4.1488,-4.1497,-4.1542,-4.1567,-4.154,-4.1673,-4.1646,-4.1596,-4.1512,-4.1656,-4.1709,-4.1731,-4.1435,-4.1432,-4.143,-4.1428,0,0,-4.1386,-4.1403,-4.1428,-4.1442,-4.1462,-4.1509,-4.1584,-4.1628,-4.1659,-4.1687,-4.1746,-4.1821,-4.1774,-4.1796,-4.177,-4.1825,-4.1962,-4.1767,-4.1766,-4.18,-4.2106,-4.2142,-4.2169,-4.1932,-4.1936,-4.194,-4.2103,0,-4.1554,-4.1683,-4.1654,-4.178,-4.1835,-4.1774,-4.1839,-4.1857,-4.1851,-4.1896,-4.1889,-4.1942,-4.1876,-4.1889,-4.1941,-4.1935,-4.2022,-4.1923,-4.1985,-4.1988,-4.1978,-4.2197,-4.2235,-4.239,-4.2124,-4.2128,-4.213,0,-4.1767,-4.1802,-4.1934,-4.1943,-4.1965,-4.2024,-4.2061,-4.2106,-4.2125,-4.2117,-4.2142,-4.2105,-4.2177,-4.2095,-4.2193,-4.2125,-4.2149,-4.215,-4.2155,-4.2157,-4.2066,-4.2202,-4.2438,-4.246,-4.2163,-4.2161,-4.2158,0,-4.1926,-4.2006,-4.2094,-4.2109,-4.2123,-4.2165,-4.2173,-4.2188,-4.2216,-4.2248,-4.2265,-4.2306,-4.2328,-4.236,-4.2334,-4.2277,-4.2435,-4.2351,-4.2427,-4.2428,-4.2461,-4.2459,-4.2702,-4.2482,-4.2482,-4.2482,-4.2481,0,-4.2114,-4.2197,-4.2165,-4.222,-4.2309,-4.2275,-4.2365,-4.2365,-4.2378,-4.243,-4.238,-4.243,-4.2394,-4.2441,-4.2422,-4.2503,-4.2514,-4.2508,-4.2501,-4.2511,-4.2511,-4.2523,-4.2511,-4.2488,-4.2486,-4.2485,-4.2484,0,-4.2305,-4.2288,-4.238,-4.2386,-4.2389,-4.2454,-4.2458,-4.2508,-4.2498,-4.2564,-4.2578,-4.2563,-4.2614,-4.2593,-4.2648,-4.2634,-4.2738,-4.2719,-4.2732,-4.2726,-4.2802,-4.2794,-4.3059,-4.3091,-4.2854,-4.2856,-4.2858,0,-4.2425,-4.2487,-4.2499,-4.2531,-4.2542,-4.2593,-4.2621,-4.259,-4.2621,-4.2647,-4.2693,-4.2741,-4.2777,-4.2862,-4.2855,-4.2896,-4.2875,-4.2966,-4.2881,-4.2888,-4.2873,-4.2868,-4.2873,-4.2981,-4.2984,-4.2986,-4.2988,0,-4.2639,-4.2628,-4.267,-4.271,-4.2745,-4.2775,-4.28,-4.2829,-4.2799,-4.2836,-4.2888,-4.2917,-4.2972,-4.3019,-4.3055,-4.3061,-4.3019,-4.3015,-4.3034,-4.3043,-4.3047,-4.3043,-4.2775,-4.3009,-4.3007,-4.3005,-4.3004,-4.3003,-4.2796,-4.2847,-4.2863,-4.2912,-4.2928,-4.2952,-4.2998,-4.2995,-4.3038,-4.3081,-4.306,-4.312,-4.3136,-4.3181,-4.3193,-4.3238,-4.3203,-4.3232,-4.3238,-4.3245,-4.3253,-4.3042,-4.3245,-4.3245,-4.3244,-4.3244,-4.3243,0,-4.3004,-4.3012,-4.3057,-4.3094,-4.3132,-4.3091,-4.3116,-4.315,-4.3204,-4.3223,-4.326,-4.3319,-4.3364,-4.3361,-4.3402,-4.3439,-4.3421,-4.3451,-4.3446,-4.3447,-4.3284,-4.3262,-4.3465,-4.3465,-4.3464,-4.3464,-4.3464,-4.3464,-4.3117,-4.32,-4.319,-4.328,-4.3287,-4.3346,-4.3363,-4.3385,-4.34,-4.3468,-4.3506,-4.3504,-4.3513,-4.3554,-4.3593,-4.3591,-4.3607,-4.3644,-4.3634,-4.3481,-4.3459,-4.3438,-4.3417,-4.3648,-4.3649,-4.3792,-4.3794,-4.3795]},{"header":{"parameterUnit":"m.s-1","parameterCategory":1,"la1":30.2991,"la2":30.254,"lo1":-89.0895,"lo2":-89.0444,"dy":0.0017,"dx":0.0017,"nx":28,"ny":28,"refTime":"2024-12-03T03:00:00:Z","depth":0,"parameterNumber":3,"parameterNumberName":"V-component_of_WINDS"},"data":[0,0,0,0,0,0,0,0,0,0,0,0,0,0,0,0,0,0,0,0,0,0,0,0,0,0,0,0,0,0,0,0,0,0,0,0,0,0,0,0,0,0,0,0,0,0,0,0,0,0,0,0,0,0,0,0,0,0,-2.0498,-2.0498,0,-2.0547,-2.0548,-2.0548,-2.0543,-2.0542,-2.0541,-2.0541,-2.059,-2.0592,-2.0594,0,0,0,0,0,0,0,0,0,0,0,0,0,-2.0396,-2.0398,-2.0498,-2.0498,-2.0499,-2.0547,-2.0548,-2.0549,-2.0543,-2.0542,-2.0541,-2.054,-2.0589,-2.0592,-2.0594,0,0,0,0,0,0,0,0,0,0,0,0,0,-2.0442,-2.0399,-2.0498,-2.0502,-2.0503,-2.0547,-2.0548,-2.0549,-2.0543,-2.0542,-2.0541,-2.054,-2.0589,-2.0591,-2.0594,-2.0637,0,0,-2.0604,-2.0605,0,0,0,0,0,0,0,0,-2.044,-2.0446,-2.0501,-2.0502,-2.0503,-2.0538,-2.053,-2.0578,-2.0544,-2.0528,-2.0541,-2.0539,-2.0573,-2.0578,-2.0589,-2.0639,-2.0641,-2.0604,-2.0606,-2.0607,-2.0608,0,0,0,0,0,0,0,-2.0436,-2.0444,-2.0517,-2.0502,-2.0503,-2.0501,-2.0506,-2.0539,-2.0557,-2.0529,-2.0529,-2.0535,-2.0574,-2.0587,-2.0591,-2.0642,-2.0604,-2.0607,-2.0609,-2.061,-2.0726,-2.0728,0,0,0,0,0,0,-2.0432,-2.0441,-2.0516,-2.0519,-2.0468,-2.0504,-2.051,-2.0528,-2.0556,-2.056,-2.0536,-2.0535,-2.0582,-2.0587,-2.0592,-2.0642,-2.0607,-2.061,-2.0612,-2.0725,-2.0727,-2.0728,0,0,0,0,0,0,-2.043,-2.0439,-2.0514,-2.048,-2.0489,-2.0507,-2.0527,-2.0529,-2.0542,-2.0561,-2.0564,-2.0546,-2.0581,-2.0588,-2.0625,-2.0644,-2.0611,-2.0614,-2.0724,-2.0726,-2.0727,-2.0743,0,0,0,0,0,0,-2.0427,-2.0438,-2.0455,-2.048,-2.0491,-2.0547,-2.0528,-2.0531,-2.0548,-2.0546,-2.0571,-2.0574,-2.0581,-2.0621,-2.0628,-2.0648,-2.0617,-2.0722,-2.0724,-2.0727,-2.0741,-2.0745,-2.0749,0,0,0,0,0,-2.0424,-2.0458,-2.0456,-2.0465,-2.0513,-2.0548,-2.0554,-2.0561,-2.0549,-2.0566,-2.0578,-2.0574,-2.0641,-2.0625,-2.0633,-2.0654,-2.0721,-2.0724,-2.0727,-2.0739,-2.0745,-2.0749,0,0,0,0,0,0,-2.0435,-2.0461,-2.046,-2.0503,-2.0523,-2.0547,-2.0568,-2.0567,-2.059,-2.0588,-2.0595,-2.0601,-2.0638,-2.065,-2.0631,-2.0695,-2.0679,-2.0684,-2.0686,-2.0691,-2.0695,-2.0691,-2.0619,0,0,0,0,0,-2.0442,-2.0469,-2.0491,-2.0527,-2.0537,-2.0551,-2.0567,-2.057,-2.0591,-2.0599,-2.0614,-2.0634,-2.0659,-2.0676,-2.0701,-2.0743,-2.0747,-2.0761,-2.0765,-2.0768,-2.0772,-2.0793,-2.0799,-2.0737,-2.0737,-2.0737,0,0,-2.0458,-2.0476,-2.0492,-2.053,-2.0546,-2.0572,-2.0558,-2.0587,-2.0607,-2.0604,-2.0639,-2.0651,-2.0674,-2.0713,-2.0731,-2.0724,-2.079,-2.0772,-2.0774,-2.0776,-2.0797,-2.0803,-2.0808,-2.0739,-2.0739,-2.0739,0,0,-2.05,-2.0517,-2.0548,-2.0564,-2.0588,-2.0597,-2.0604,-2.0628,-2.0636,-2.0672,-2.0669,-2.0692,-2.0736,-2.0752,-2.0766,-2.0812,-2.0808,-2.082,-2.084,-2.0861,-2.0866,-2.087,-2.0886,-2.0891,-2.0823,-2.0824,-2.0824,0,-2.0516,-2.0557,-2.0564,-2.0593,-2.0609,-2.0607,-2.0638,-2.0653,-2.0684,-2.0694,-2.0686,-2.074,-2.0755,-2.0798,-2.0809,-2.082,-2.0828,-2.0817,-2.0865,-2.0869,-2.0874,-2.0888,-2.0894,-2.0825,-2.0824,-2.0824,-2.0824,0,-2.0575,-2.0603,-2.0625,-2.0655,-2.0673,-2.0703,-2.0714,-2.0731,-2.0733,-2.0742,-2.0778,-2.0796,-2.0823,-2.0834,-2.0836,-2.0876,-2.0871,-2.0864,-2.0848,-2.088,-2.0894,-2.09,-2.0826,-2.0826,-2.0825,-2.0825,0,0,-2.0625,-2.0658,-2.0666,-2.0679,-2.0705,-2.0726,-2.0755,-2.0782,-2.0796,-2.0817,-2.0841,-2.0878,-2.0871,-2.0886,-2.089,-2.0908,-2.0942,-2.0899,-2.0899,-2.0905,-2.0986,-2.099,-2.0997,-2.094,-2.0941,-2.0942,-2.0983,0,-2.0669,-2.0721,-2.0728,-2.0773,-2.0799,-2.0797,-2.0822,-2.084,-2.0849,-2.0871,-2.0881,-2.0906,-2.0896,-2.0905,-2.0923,-2.0934,-2.0958,-2.0931,-2.0961,-2.0962,-2.0955,-2.1004,-2.1009,-2.1047,-2.0989,-2.099,-2.099,0,-2.0727,-2.0749,-2.0798,-2.0819,-2.0829,-2.0852,-2.0876,-2.0898,-2.0918,-2.0923,-2.094,-2.0941,-2.0969,-2.0953,-2.0992,-2.0973,-2.0986,-2.0993,-2.0994,-2.0997,-2.0978,-2.1007,-2.106,-2.1065,-2.0999,-2.0998,-2.0998,0,-2.0757,-2.08,-2.0833,-2.0845,-2.0871,-2.0886,-2.0897,-2.0916,-2.0931,-2.0952,-2.0962,-2.0986,-2.0999,-2.1017,-2.1024,-2.1012,-2.1062,-2.1047,-2.1066,-2.1066,-2.1077,-2.1076,-2.1131,-2.1086,-2.1086,-2.1086,-2.1086,0,-2.0805,-2.0834,-2.0847,-2.0868,-2.09,-2.0907,-2.0938,-2.0949,-2.0965,-2.0987,-2.0987,-2.1008,-2.1016,-2.1037,-2.1043,-2.1073,-2.108,-2.1084,-2.1085,-2.1083,-2.1083,-2.1091,-2.1088,-2.1088,-2.1087,-2.1087,-2.1087,0,-2.0844,-2.0854,-2.0891,-2.0912,-2.0918,-2.094,-2.0958,-2.0978,-2.0986,-2.1014,-2.1021,-2.1034,-2.1059,-2.1068,-2.1098,-2.1102,-2.1137,-2.1136,-2.113,-2.113,-2.1149,-2.1147,-2.1211,-2.122,-2.117,-2.117,-2.1171,0,-2.0873,-2.0895,-2.0919,-2.0934,-2.0945,-2.0969,-2.0985,-2.0992,-2.1008,-2.1031,-2.1047,-2.1072,-2.1093,-2.1133,-2.1144,-2.1167,-2.1166,-2.1187,-2.117,-2.1167,-2.1165,-2.1163,-2.1165,-2.119,-2.1191,-2.1191,-2.1192,0,-2.0923,-2.0927,-2.0949,-2.0973,-2.0991,-2.1011,-2.1029,-2.1041,-2.105,-2.1068,-2.1094,-2.1109,-2.114,-2.1164,-2.1188,-2.1198,-2.1196,-2.1197,-2.1203,-2.1201,-2.1196,-2.1198,-2.1138,-2.1196,-2.1195,-2.1195,-2.1195,-2.1195,-2.0958,-2.0977,-2.0996,-2.102,-2.1035,-2.1052,-2.1071,-2.1081,-2.1103,-2.1129,-2.1131,-2.1158,-2.1176,-2.1207,-2.1219,-2.1239,-2.1234,-2.1242,-2.1244,-2.1246,-2.1246,-2.1194,-2.1244,-2.1244,-2.1244,-2.1244,-2.1244,0,-2.1007,-2.1019,-2.1041,-2.1067,-2.1085,-2.1082,-2.1102,-2.1118,-2.1142,-2.1159,-2.1179,-2.1207,-2.123,-2.1244,-2.1267,-2.128,-2.128,-2.1286,-2.1285,-2.1287,-2.1251,-2.1243,-2.1286,-2.1286,-2.1286,-2.1286,-2.1286,-2.1286,-2.1034,-2.1066,-2.1072,-2.111,-2.1122,-2.1149,-2.116,-2.1175,-2.1188,-2.122,-2.124,-2.1248,-2.1263,-2.1287,-2.1308,-2.1311,-2.1319,-2.1325,-2.1328,-2.1294,-2.129,-2.1285,-2.1278,-2.1327,-2.1327,-2.1362,-2.1362,-2.1362]}]]